• In Netherlands
  • List of Countries
  • For 7 days
  • Water Temperature
  • Satellite Maps
  • Weather Map
  • Weather Widgets
  • user-avatar
    Login

    Hourly Weather Melbourne

    Today, 17 January, Wednesday

    Time Temperature Precipitation Wind Pressure Humidity
    00:00 +16°C° 0 mm 2 mps 763 mmHg 74%
    01:00 +15°C° 0 mm 2 mps 763 mmHg 77%
    02:00 +15°C° 0 mm 2 mps 763 mmHg 77%
    03:00 +14°C° 0 mm 2 mps 763 mmHg 78%
    04:00 +14°C° 0 mm 2 mps 762 mmHg 80%
    05:00 +15°C° 0 mm 1 mps 762 mmHg 74%
    06:00 +16°C° 0 mm 1 mps 763 mmHg 68%
    07:00 +18°C° 0 mm 1 mps 763 mmHg 62%
    08:00 +21°C° 0 mm 1 mps 763 mmHg 52%
    09:00 +24°C° 0 mm 1 mps 762 mmHg 42%
    10:00 +28°C° 0 mm 1 mps 762 mmHg 32%
    11:00 +30°C° 0 mm 1 mps 762 mmHg 29%
    12:00 +32°C° 0 mm 1 mps 761 mmHg 25%
    13:00 +34°C° 0 mm 1 mps 761 mmHg 22%
    14:00 +34°C° 0 mm 1 mps 761 mmHg 21%
    15:00 +35°C° 0 mm 2 mps 760 mmHg 21%
    16:00 +34°C° 0 mm 3 mps 760 mmHg 21%
    17:00 +31°C° 0 mm 2 mps 760 mmHg 27%
    18:00 +30°C° 0 mm 2 mps 760 mmHg 32%
    19:00 +28°C° 0 mm 2 mps 760 mmHg 37%
    20:00 +26°C° 0 mm 2 mps 760 mmHg 41%
    21:00 +24°C° 0 mm 1 mps 760 mmHg 45%
    22:00 +22°C° 0 mm 1 mps 760 mmHg 52%
    23:00 +21°C° 0 mm 1 mps 760 mmHg 52%

    Tomorrow, 18 January, Thursday

    Time Temperature Precipitation Wind Pressure Humidity
    00:00 +21°C° 0 mm 1 mps 760 mmHg 51%
    01:00 +21°C° 0 mm 1 mps 760 mmHg 51%
    02:00 +21°C° 0 mm 1 mps 760 mmHg 50%
    03:00 +20°C° 0 mm 2 mps 760 mmHg 48%
    04:00 +20°C° 0 mm 2 mps 760 mmHg 47%
    05:00 +21°C° 0 mm 2 mps 760 mmHg 44%
    06:00 +22°C° 0 mm 3 mps 760 mmHg 42%
    07:00 +25°C° 0 mm 3 mps 760 mmHg 40%
    08:00 +28°C° 0 mm 4 mps 760 mmHg 33%
    09:00 +32°C° 0 mm 4 mps 760 mmHg 27%
    10:00 +35°C° 0 mm 4 mps 760 mmHg 21%
    11:00 +37°C° 0 mm 4 mps 759 mmHg 18%
    12:00 +38°C° 0 mm 4 mps 759 mmHg 16%
    13:00 +40°C° 0 mm 3 mps 758 mmHg 13%
    14:00 +40°C° 0 mm 3 mps 758 mmHg 13%
    15:00 +41°C° 0 mm 2 mps 757 mmHg 12%
    16:00 +41°C° 0 mm 2 mps 757 mmHg 12%
    17:00 +39°C° 0 mm 2 mps 757 mmHg 15%
    18:00 +37°C° 0 mm 2 mps 757 mmHg 19%
    19:00 +34°C° 0 mm 1 mps 756 mmHg 22%
    20:00 +32°C° 0 mm 2 mps 757 mmHg 23%
    21:00 +31°C° 0 mm 2 mps 757 mmHg 24%
    22:00 +29°C° 0 mm 3 mps 757 mmHg 24%
    23:00 +28°C° 0 mm 3 mps 757 mmHg 25%

    Day after tomorrow, 19 January, Friday

    Time Temperature Precipitation Wind Pressure Humidity
    00:00 +27°C° 0 mm 2 mps 757 mmHg 26%
    01:00 +26°C° 0 mm 2 mps 757 mmHg 26%
    02:00 +26°C° 0 mm 3 mps 757 mmHg 27%
    03:00 +25°C° 0 mm 3 mps 757 mmHg 27%
    04:00 +25°C° 0 mm 3 mps 757 mmHg 27%
    05:00 +26°C° 0 mm 3 mps 757 mmHg 26%
    06:00 +27°C° 0 mm 4 mps 757 mmHg 26%
    07:00 +28°C° 0 mm 4 mps 758 mmHg 25%
    08:00 +32°C° 0 mm 5 mps 757 mmHg 21%
    09:00 +36°C° 0 mm 5 mps 757 mmHg 18%
    10:00 +40°C° 0 mm 5 mps 757 mmHg 14%
    11:00 +41°C° 0 mm 5 mps 757 mmHg 12%
    12:00 +43°C° 0 mm 5 mps 756 mmHg 11%
    13:00 +46°C° 0 mm 5 mps 756 mmHg 9%
    14:00 +44°C° 0 mm 4 mps 756 mmHg 10%
    15:00 +44°C° 0 mm 4 mps 755 mmHg 11%
    16:00 +43°C° 0 mm 3 mps 755 mmHg 12%
    17:00 +40°C° 0 mm 3 mps 755 mmHg 16%
    18:00 +37°C° 0 mm 3 mps 755 mmHg 21%
    19:00 +34°C° 0 mm 3 mps 755 mmHg 26%
    20:00 +31°C° 0 mm 3 mps 755 mmHg 31%
    21:00 +28°C° 0 mm 3 mps 756 mmHg 37%
    22:00 +26°C° 0 mm 3 mps 757 mmHg 42%
    23:00 +25°C° 0 mm 2 mps 757 mmHg 48%

    20 January, Saturday

    Time Temperature Precipitation Wind Pressure Humidity
    00:00 +24°C° 0 mm 2 mps 757 mmHg 55%
    01:00 +24°C° 0 mm 1 mps 757 mmHg 61%
    02:00 +23°C° 0 mm 1 mps 757 mmHg 62%
    03:00 +23°C° 0 mm 1 mps 757 mmHg 63%
    04:00 +23°C° 0 mm 1 mps 757 mmHg 64%
    05:00 +24°C° 0 mm 2 mps 757 mmHg 65%
    06:00 +24°C° 0 mm 2 mps 758 mmHg 66%
    07:00 +24°C° 0 mm 2 mps 758 mmHg 67%
    08:00 +26°C° 0 mm 2 mps 758 mmHg 62%
    09:00 +27°C° 0 mm 2 mps 758 mmHg 56%
    10:00 +29°C° 0 mm 2 mps 758 mmHg 50%
    11:00 +30°C° 0 mm 2 mps 758 mmHg 48%
    12:00 +30°C° 0 mm 2 mps 758 mmHg 47%
    13:00 +31°C° 0 mm 3 mps 757 mmHg 45%
    14:00 +31°C° 0 mm 3 mps 757 mmHg 47%
    15:00 +30°C° 0 mm 3 mps 757 mmHg 49%
    16:00 +30°C° 0 mm 4 mps 756 mmHg 51%
    17:00 +28°C° 0 mm 4 mps 756 mmHg 56%
    18:00 +27°C° 0 mm 4 mps 757 mmHg 62%
    19:00 +26°C° 0 mm 3 mps 757 mmHg 67%
    20:00 +25°C° 0 mm 3 mps 757 mmHg 69%
    21:00 +24°C° 0 mm 3 mps 757 mmHg 71%
    22:00 +24°C° 0 mm 3 mps 758 mmHg 73%
    23:00 +23°C° 0 mm 2 mps 757 mmHg 75%

    21 January, Sunday

    Time Temperature Precipitation Wind Pressure Humidity
    00:00 +23°C° 0 mm 2 mps 757 mmHg 78%
    01:00 +23°C° 0 mm 1 mps 756 mmHg 80%
    02:00 +23°C° 0 mm 1 mps 756 mmHg 78%
    03:00 +23°C° 0 mm 1 mps 756 mmHg 76%
    04:00 +23°C° 0 mm 1 mps 755 mmHg 74%
    05:00 +23°C° 0 mm 1 mps 755 mmHg 72%
    06:00 +24°C° 0 mm 1 mps 755 mmHg 70%
    07:00 +24°C° 0 mm 1 mps 755 mmHg 68%
    08:00 +27°C° 0.1 mm 1 mps 755 mmHg 59%
    09:00 +30°C° 0.1 mm 1 mps 755 mmHg 50%
    10:00 +32°C° 0.1 mm 1 mps 755 mmHg 41%
    11:00 +35°C° 0.1 mm 2 mps 754 mmHg 38%
    12:00 +36°C° 0.1 mm 2 mps 754 mmHg 34%
    13:00 +37°C° 0.1 mm 3 mps 753 mmHg 31%
    14:00 +34°C° 0.4 mm 2 mps 753 mmHg 43%
    15:00 +31°C° 0.4 mm 2 mps 753 mmHg 56%
    16:00 +28°C° 0.4 mm 2 mps 752 mmHg 69%
    17:00 +27°C° 0.1 mm 2 mps 753 mmHg 72%
    18:00 +26°C° 0.1 mm 2 mps 753 mmHg 74%
    19:00 +25°C° 0.1 mm 2 mps 753 mmHg 77%
    20:00 +24°C° 0.1 mm 2 mps 753 mmHg 82%
    21:00 +23°C° 0.1 mm 2 mps 753 mmHg 86%
    22:00 +21°C° 0.1 mm 2 mps 753 mmHg 91%
    23:00 +21°C° 0.2 mm 2 mps 753 mmHg 92%

    22 January, Monday

    Time Temperature Precipitation Wind Pressure Humidity
    00:00 +21°C° 0.2 mm 2 mps 753 mmHg 94%
    01:00 +21°C° 0.2 mm 1 mps 753 mmHg 95%
    02:00 +20°C° 0 mm 2 mps 752 mmHg 95%
    03:00 +20°C° 0 mm 2 mps 752 mmHg 95%
    04:00 +20°C° 0 mm 2 mps 752 mmHg 95%
    05:00 +20°C° 0 mm 2 mps 753 mmHg 94%
    06:00 +20°C° 0 mm 3 mps 753 mmHg 92%
    07:00 +20°C° 0 mm 3 mps 754 mmHg 91%
    08:00 +21°C° 0 mm 3 mps 754 mmHg 87%
    09:00 +21°C° 0 mm 3 mps 754 mmHg 83%
    10:00 +22°C° 0 mm 3 mps 754 mmHg 78%
    11:00 +24°C° 0 mm 3 mps 754 mmHg 72%
    12:00 +26°C° 0 mm 3 mps 754 mmHg 65%
    13:00 +27°C° 0 mm 3 mps 754 mmHg 58%
    14:00 +27°C° 0 mm 4 mps 753 mmHg 56%
    15:00 +27°C° 0 mm 4 mps 753 mmHg 54%
    16:00 +27°C° 0 mm 5 mps 753 mmHg 52%
    17:00 +26°C° 0 mm 5 mps 753 mmHg 57%
    18:00 +23°C° 0 mm 4 mps 754 mmHg 61%
    19:00 +21°C° 0 mm 4 mps 754 mmHg 66%
    20:00 +20°C° 0 mm 4 mps 755 mmHg 72%
    21:00 +19°C° 0 mm 4 mps 755 mmHg 78%
    22:00 +18°C° 0 mm 3 mps 756 mmHg 85%
    23:00 +17°C° 0 mm 3 mps 756 mmHg 86%
    Show more